Weather History for Joplin, MO

Change the Weather History Date:

Wednesday, November 7, 2012

  Actual Average Record
Temperature  
Mean Temperature 46 °F 52 °F  
Max Temperature 57 °F 63 °F 83 °F (2005)
Min Temperature 35 °F 42 °F 14 °F (1991)
Degree Days  
Heating Degree Days 19 13  
Month to date heating degree days 92 84  
Since 1 July heating degree days 416 336  
Cooling Degree Days 0 0  
Month to date cooling degree days 0 5  
Year to date cooling degree days 2102 1696  
Moisture  
Dew Point 31 °F    
Average Humidity 58    
Maximum Humidity 73    
Minimum Humidity 36    
Precipitation  
Precipitation 0.00 in 0.13 in 0.85 in (2011)
Month to date precipitation T 0.92  
Year to date precipitation 35.65 40.87  
Snow  
Snow 0.00 in - - ()
Month to date snowfall 0.0  
Snow Depth 0.00 in    
Sea Level Pressure  
Sea Level Pressure 30.14 in    
Wind  
Wind Speed 6 mph (NNW)    
Max Wind Speed 16 mph    
Max Gust Speed 22 mph    
Visibility 10 miles    
Events      
T = Trace of Precipitation, MM = Missing Value Source: NWS Daily Summary

Daily Weather History Graph

Daily Weather History Graph

Search for Another Location

Airport:

Trip Planner

Search our weather history database for the weather conditions in past years. The results will help you decide how hot, cold, wet, or windy it might be!

Date:

Astronomy

Nov. 07, 2012 Rise Set
Actual Time 6:49 AM CST 5:13 PM CST
Civil Twilight 6:21 AM CST 5:41 PM CST
Nautical Twilight 5:50 AM CST 6:12 PM CST
Astronomical Twilight 5:20 AM CST 6:42 PM CST
Moon No Moon Rise 1:15 PM CST (11/7)
Length of Visible Light 11h 19m
Length of Day
10h 24m
Last Quarter, 43% of the Moon is Illuminated
Nov 7
Last Quarter
Nov 13
New
Nov 20
First Quarter
Nov 28
Full
Dec 6
Last Quarter

Hourly Weather History & Observations

Time (CST) Temp. Windchill Dew Point Humidity Pressure Visibility Wind Dir Wind Speed Gust Speed Precip Events Conditions
12:53 AM 41.0 °F 39.0 °F 26.1 °F 55% 30.09 in 10.0 mi West 3.5 mph - N/A   Clear
1:53 AM 39.9 °F 37.8 °F 27.0 °F 60% 30.10 in 10.0 mi West 3.5 mph - N/A   Clear
2:53 AM 37.9 °F 34.4 °F 27.0 °F 65% 30.10 in 10.0 mi WSW 4.6 mph - N/A   Clear
3:53 AM 37.0 °F 31.6 °F 27.0 °F 67% 30.11 in 10.0 mi WNW 6.9 mph - N/A   Clear
4:53 AM 37.0 °F 34.5 °F 27.0 °F 67% 30.13 in 10.0 mi NW 3.5 mph - N/A   Clear
5:53 AM 36.0 °F 33.3 °F 27.0 °F 70% 30.14 in 10.0 mi West 3.5 mph - N/A   Clear
6:53 AM 36.0 °F 33.3 °F 27.0 °F 70% 30.16 in 10.0 mi WNW 3.5 mph - N/A   Clear
7:53 AM 37.9 °F 33.5 °F 28.9 °F 70% 30.18 in 10.0 mi NW 5.8 mph - N/A   Clear
8:53 AM 45.0 °F 40.6 °F 33.1 °F 63% 30.19 in 10.0 mi NW 8.1 mph - N/A   Clear
9:53 AM 50.0 °F - 34.0 °F 54% 30.19 in 10.0 mi North 12.7 mph - N/A   Clear
10:53 AM 53.1 °F - 33.1 °F 47% 30.19 in 10.0 mi North 11.5 mph - N/A   Clear
11:53 AM 55.0 °F - 34.0 °F 45% 30.18 in 10.0 mi North 12.7 mph - N/A   Clear
12:53 PM 55.9 °F - 33.1 °F 42% 30.14 in 10.0 mi North 13.8 mph - N/A   Clear
1:53 PM 57.0 °F - 32.0 °F 39% 30.12 in 10.0 mi North 6.9 mph - N/A   Clear
2:53 PM 57.0 °F - 30.0 °F 36% 30.12 in 10.0 mi North 5.8 mph - N/A   Clear
3:53 PM 55.9 °F - 32.0 °F 40% 30.12 in 10.0 mi Variable 5.8 mph - N/A   Clear
4:53 PM 53.1 °F - 30.9 °F 43% 30.12 in 10.0 mi Variable 5.8 mph - N/A   Clear
5:53 PM 48.0 °F - 30.9 °F 52% 30.13 in 10.0 mi ENE 3.5 mph - N/A   Clear
6:53 PM 43.0 °F - 33.1 °F 68% 30.14 in 10.0 mi Calm Calm - N/A   Clear
7:53 PM 41.0 °F 38.0 °F 33.1 °F 73% 30.14 in 10.0 mi ESE 4.6 mph - N/A   Clear
8:53 PM 41.0 °F 38.0 °F 32.0 °F 70% 30.14 in 10.0 mi ESE 4.6 mph - N/A   Clear
9:53 PM 41.0 °F 37.1 °F 32.0 °F 70% 30.14 in 10.0 mi SE 5.8 mph - N/A   Clear
10:53 PM 42.1 °F 38.4 °F 32.0 °F 67% 30.13 in 10.0 mi SE 5.8 mph - N/A   Clear
11:53 PM 43.0 °F 38.8 °F 32.0 °F 65% 30.14 in 10.0 mi SE 6.9 mph - N/A   Clear